INTELSAT 36 (IS-36)

Last updated on Sun Dec 21 2025 00:02:55 GMT+0000 (Coordinated Universal Time)

1 41747U 16053A 25354.42218071 -.00000001 00000+0 00000+0 0 9992 2 41747 0.0107 8.1508 0001172 323.4554 338.1246 1.00271763 34159
UTC large
Height (km)
Speed (km/s)
/
Latitude / Longitude
Inclination (degrees)
Orbital Period (minutes)
Azimuth
Elevation
Range (km)
Doppler Factor

Next 0 passes for location: London (51.5072 / 0.1276)

Sorry there are no passes over London.